ICESAT-2 (43613 NORAD) Tracking and Keplerian Element Data

This shows tracking and keplerian element data for the satellite.

Feedback or suggestion? Click here.




ElementValue
Catalog43613
NameICESAT-2
Epoch Orbit3339
Epoch Day112.15357644
Epoch Year2019
RAAN307.6412
Inclination91.9976
Eccentricity0.0002945
Argument of Perigee100.6075
Mean Anonmoly259.5506
Mean Motion15.28274865
Decay Rate2.75E-06
L11 43613U 18070A 19112.15357644 .00000275 00000-0 97699-5 0 9991
L22 43613 91.9976 307.6412 0002945 100.6075 259.5506 15.28274865 33390

Live tracking and technical data element details for ICESAT-2 (NORAD 43613). ICESAT-2 can be tracked NOW for your location showing map with azimuth and elevation plus other details from your city location.

Track the satellite on the map from your city or location and see movement details for azimuth, elevation, latitude, longitude, range, height, and movement on the map or in text.







IsCatalogInMostPopularTable: catalog: 43613, numindb: 109
Update: records affected: 1



GetName: 43613 ICESAT-2

Hit Count: updated at: Tue, 23 Apr 2019 19:55:10 GMT